Weather History for KGDV - May, 2013

Change the Weather History Date:

Friday, May 24, 2013

  Actual Average Record
Temperature  
Mean Temperature 62 °F -  
Max Temperature 73 °F 67 °F 84 °F (2014)
Min Temperature 51 °F 43 °F 35 °F (2001)
Degree Days  
Heating Degree Days 3    
Growing Degree Days 12 (Base 50)    
Moisture  
Dew Point 43 °F    
Average Humidity 55    
Maximum Humidity 72    
Minimum Humidity 29    
Precipitation  
Precipitation 0.00 in - - ()
Sea Level Pressure  
Sea Level Pressure 29.90 in    
Wind  
Wind Speed 15 mph (SSW)    
Max Wind Speed 24 mph    
Max Gust Speed 32 mph    
Visibility 10 miles    
Events      
Averages and records for this station are not official NWS values.
T = Trace of Precipitation, MM = Missing Value Source: NWS Daily Summary

Daily Weather History Graph

Daily Weather History Graph

Search for Another Location

Airport or City:

Trip Planner

Search our weather history database for the weather conditions in past years. The results will help you decide how hot, cold, wet, or windy it might be!

Date:

Astronomy

May. 24, 2013 Rise Set
Actual Time 5:13 AM MDT 8:39 PM MDT
Civil Twilight 4:35 AM MDT 9:17 PM MDT
Nautical Twilight 3:46 AM MDT 10:07 PM MDT
Astronomical Twilight 2:41 AM MDT 11:12 PM MDT
Moon 8:22 PM MDT (5/24) 4:51 AM MDT (5/24)
Length of Visible Light 16h 41m
Length of Day
15h 26m
Full, 100% of the Moon is Illuminated
May 24
Full
May 24
Full
May 31
Last Quarter
Jun 8
New
Jun 16
First Quarter

Hourly Weather History & Observations

Time (MDT) Temp. Dew Point Humidity Pressure Visibility Wind Dir Wind Speed Gust Speed Precip Events Conditions
12:15 AM 57.2 °F 42.8 °F 59% 29.91 in 10.0 mi ESE 19.6 mph 27.6 mph N/A   Clear
12:35 AM 57.2 °F 42.8 °F 59% 29.90 in 10.0 mi ESE 20.7 mph 28.8 mph N/A   Clear
12:55 AM 57.2 °F 42.8 °F 59% 29.89 in 10.0 mi ESE 18.4 mph 28.8 mph N/A   Clear
1:35 AM 55.4 °F 42.8 °F 63% 29.88 in 10.0 mi ESE 15.0 mph 20.7 mph N/A   Partly Cloudy
1:55 AM 57.2 °F 42.8 °F 59% 29.88 in 10.0 mi SE 18.4 mph 26.5 mph N/A   Scattered Clouds
2:15 AM 57.2 °F 42.8 °F 59% 29.88 in 10.0 mi SE 24.2 mph 27.6 mph N/A   Mostly Cloudy
2:35 AM 57.2 °F 42.8 °F 59% 29.88 in 10.0 mi SE 18.4 mph 29.9 mph N/A   Overcast
3:15 AM 57.2 °F 42.8 °F 59% 29.86 in 10.0 mi SE 17.3 mph 28.8 mph N/A   Overcast
3:35 AM 55.4 °F 42.8 °F 63% 29.86 in 10.0 mi SE 19.6 mph 25.3 mph N/A   Overcast
3:55 AM 55.4 °F 44.6 °F 67% 29.85 in 10.0 mi SE 12.7 mph 18.4 mph N/A   Overcast
4:15 AM 55.4 °F 44.6 °F 67% 29.85 in 10.0 mi SE 12.7 mph 24.2 mph N/A   Overcast
4:55 AM 55.4 °F 44.6 °F 67% 29.83 in 10.0 mi SE 21.9 mph 26.5 mph N/A   Overcast
5:15 AM 55.4 °F 44.6 °F 67% 29.83 in 10.0 mi SSE 16.1 mph 24.2 mph N/A   Overcast
6:15 AM 55.4 °F 44.6 °F 67% 29.83 in 10.0 mi SE 10.4 mph - N/A   Overcast
6:35 AM 55.4 °F 44.6 °F 67% 29.83 in 10.0 mi SE 10.4 mph 19.6 mph N/A   Overcast
6:55 AM 55.4 °F 44.6 °F 67% 29.83 in 10.0 mi SSE 10.4 mph - N/A   Overcast
7:15 AM 55.4 °F 44.6 °F 67% 29.83 in 10.0 mi SSE 8.1 mph - N/A   Overcast
7:35 AM 55.4 °F 46.4 °F 72% 29.83 in 10.0 mi SE 9.2 mph - N/A   Overcast
7:55 AM 55.4 °F 46.4 °F 72% 29.83 in 10.0 mi SSE 9.2 mph - N/A   Overcast
8:15 AM 55.4 °F 46.4 °F 72% 29.83 in 10.0 mi SSE 12.7 mph - N/A   Overcast
8:35 AM 57.2 °F 46.4 °F 67% 29.83 in 10.0 mi SSE 11.5 mph - N/A   Overcast
8:55 AM 59.0 °F 48.2 °F 67% 29.84 in 10.0 mi SSE 13.8 mph - N/A   Overcast
9:15 AM 57.2 °F 48.2 °F 72% 29.84 in 10.0 mi SSE 11.5 mph - N/A   Overcast
9:35 AM 57.2 °F 48.2 °F 72% 29.86 in 10.0 mi South 8.1 mph - N/A   Overcast
9:55 AM 57.2 °F 48.2 °F 72% 29.87 in 10.0 mi South 10.4 mph - N/A   Overcast
10:15 AM 57.2 °F 48.2 °F 72% 29.87 in 10.0 mi SSW 10.4 mph - N/A   Overcast
10:35 AM 55.4 °F 46.4 °F 72% 29.89 in 10.0 mi West 24.2 mph 32.2 mph N/A   Overcast
10:55 AM 55.4 °F 44.6 °F 67% 29.90 in 10.0 mi WNW 21.9 mph - N/A   Overcast
11:15 AM 55.4 °F 44.6 °F 67% 29.90 in 10.0 mi WNW 12.7 mph - N/A   Overcast
11:35 AM 57.2 °F 44.6 °F 63% 29.89 in 10.0 mi NW 15.0 mph - N/A   Overcast
11:55 AM 59.0 °F 44.6 °F 59% 29.91 in 10.0 mi NW 10.4 mph - N/A   Overcast
12:15 PM 60.8 °F 46.4 °F 59% 29.92 in 10.0 mi West 12.7 mph - N/A   Mostly Cloudy
12:35 PM 62.6 °F 44.6 °F 52% 29.92 in 10.0 mi WNW 13.8 mph 19.6 mph N/A   Scattered Clouds
1:15 PM 69.8 °F 44.6 °F 40% 29.91 in 10.0 mi WSW 13.8 mph 20.7 mph N/A   Clear
1:35 PM 69.8 °F 41.0 °F 35% 29.91 in 10.0 mi West 11.5 mph 20.7 mph N/A   Clear
1:55 PM 71.6 °F 41.0 °F 33% 29.91 in 10.0 mi WSW 12.7 mph 17.3 mph N/A   Clear
2:15 PM 71.6 °F 42.8 °F 35% 29.91 in 10.0 mi WSW 10.4 mph 17.3 mph N/A   Clear
2:35 PM 71.6 °F 39.2 °F 31% 29.91 in 10.0 mi SW 15.0 mph 19.6 mph N/A   Clear
2:55 PM 73.4 °F 39.2 °F 29% 29.92 in 10.0 mi West 10.4 mph 21.9 mph N/A   Clear
3:15 PM 73.4 °F 39.2 °F 29% 29.92 in 10.0 mi West 15.0 mph 24.2 mph N/A   Clear
3:35 PM 71.6 °F 39.2 °F 31% 29.92 in 10.0 mi West 9.2 mph 18.4 mph N/A   Clear
3:55 PM 71.6 °F 39.2 °F 31% 29.92 in 10.0 mi West 17.3 mph 24.2 mph N/A   Clear
4:55 PM 71.6 °F 39.2 °F 31% 29.92 in 10.0 mi WNW 12.7 mph - N/A   Clear
5:15 PM 71.6 °F 37.4 °F 29% 29.93 in 10.0 mi WNW 9.2 mph - N/A   Clear
5:35 PM 71.6 °F 39.2 °F 31% 29.93 in 10.0 mi WNW 10.4 mph - N/A   Clear
5:55 PM 69.8 °F 39.2 °F 33% 29.94 in 10.0 mi WNW 6.9 mph - N/A   Clear
6:15 PM 69.8 °F 41.0 °F 35% 29.94 in 10.0 mi WNW 6.9 mph - N/A   Clear
6:35 PM 69.8 °F 39.2 °F 33% 29.94 in 10.0 mi NW 5.8 mph - N/A   Clear
6:55 PM 68.0 °F 41.0 °F 37% 29.95 in 10.0 mi NW 9.2 mph - N/A   Clear
7:15 PM 66.2 °F 42.8 °F 43% 29.96 in 10.0 mi NNW 9.2 mph - N/A   Clear
7:35 PM 66.2 °F 42.8 °F 43% 29.96 in 10.0 mi North 8.1 mph - N/A   Clear
7:55 PM 64.4 °F 42.8 °F 45% 29.97 in 10.0 mi NNW 8.1 mph - N/A   Clear
8:15 PM 60.8 °F 42.8 °F 52% 29.97 in 10.0 mi North - - N/A   Clear
8:35 PM 57.2 °F 42.8 °F 59% 29.97 in 10.0 mi North 9.2 mph - N/A   Clear
8:55 PM 55.4 °F 41.0 °F 58% 29.97 in 10.0 mi North 11.5 mph - N/A   Clear
9:15 PM 55.4 °F 39.2 °F 54% 29.98 in 10.0 mi North 8.1 mph - N/A   Clear
9:35 PM 55.4 °F 39.2 °F 54% 29.99 in 10.0 mi NNE 8.1 mph - N/A   Clear
10:35 PM 53.6 °F 41.0 °F 62% 30.01 in 10.0 mi NNE 6.9 mph - N/A   Clear
10:55 PM 51.8 °F 41.0 °F 67% 30.00 in 10.0 mi NE 9.2 mph - N/A   Clear
11:15 PM 53.6 °F 42.8 °F 67% 30.00 in 10.0 mi ENE 6.9 mph - N/A   Clear
11:55 PM 53.6 °F 42.8 °F 67% 30.01 in 10.0 mi ENE 9.2 mph - N/A   Scattered Clouds